PE1EDR Weather Reports


Display with metric or nautical units.
time (UTC)temp
F
wind
direction
speed
MPH
gust
MPH
rain 1hr
in
rain 24hr
in
rain mn
in
humidity
%
barometer
mb
20260502231604 57 230 2.0 11.0 0.00 0.09 0.02 92 1013.2
20260502231110 57 244 1.0 11.0 0.00 0.09 0.00 92 1013.2
20260502230609 57 31 1.0 3.0 0.00 0.09 0.00 91 1012.2
20260502230104 57 69 1.0 5.0 0.00 0.09 0.00 91 1011.9
20260502225600 57 92 1.0 0.0 0.00 0.00 0.00 91 1012.0
20260502224316 57 84 1.0 6.0 0.00 0.09 0.00 91 1012.1
20260502223807 57 129 1.0 6.0 0.00 0.09 0.00 91 1012.1
20260502223313 57 85 1.0 6.0 0.00 0.09 0.00 91 1012.1
20260502222804 58 84 1.0 4.0 0.00 0.09 0.00 91 1012.1
20260502221807 58 132 0.0 2.0 0.00 0.09 0.00 90 1012.5
20260502221259 58 132 1.0 5.0 0.00 0.09 0.00 90 1012.6
20260502220801 58 153 2.0 7.0 0.00 0.09 0.00 90 1012.5
20260502220243 58 132 2.0 7.0 0.00 0.09 0.00 90 1012.5
20260502215224 58 72 1.0 4.0 0.00 0.09 0.02 90 1012.0
20260502214724 58 57 1.0 0.0 0.00 0.00 0.00 90 1011.9
20260502214404 58 61 1.0 5.0 0.00 0.09 0.02 90 1011.9
20260502213904 58 88 1.0 7.0 0.00 0.09 0.02 90 1011.9
20260502213404 58 48 1.0 7.0 0.00 0.09 0.02 90 1012.0
20260502211855 58 167 1.0 3.0 0.00 0.09 0.02 89 1012.4
20260502211343 58 59 1.0 5.0 0.00 0.09 0.02 89 1012.4
20260502210833 58 72 1.0 5.0 0.00 0.09 0.02 89 1012.3
20260502210333 58 62 1.0 5.0 0.00 0.09 0.02 88 1012.4
20260502205331 58 46 1.0 4.0 0.00 0.09 0.02 87 1012.4
20260502203837 59 53 0.0 4.0 0.00 0.09 0.02 87 1012.6
20260502203334 59 53 1.0 4.0 0.00 0.09 0.02 87 1012.7
20260502202833 59 48 0.0 3.0 0.00 0.09 0.02 87 1012.8
20260502202316 59 50 1.0 3.0 0.00 0.09 0.02 86 1012.8
20260502201821 59 28 2.0 0.0 0.00 0.00 0.00 86 1012.9
20260502201146 60 50 1.0 5.0 0.00 0.09 0.02 85 1013.1
20260502200147 60 54 0.0 4.0 0.00 0.09 0.02 84 1013.2
20260502195137 60 48 0.0 2.0 0.00 0.09 0.02 83 1013.2
20260502194136 60 50 0.0 2.0 0.00 0.09 0.02 82 1013.3
20260502193632 61 50 1.0 5.0 0.00 0.09 0.02 81 1013.2
20260502193137 61 49 2.0 6.0 0.00 0.09 0.02 81 1013.2
20260502192632 61 36 2.0 6.0 0.00 0.09 0.02 80 1013.1
20260502191632 62 56 2.0 5.0 0.00 0.09 0.02 78 1013.1
20260502190626 62 27 3.0 8.0 0.00 0.09 0.02 75 1013.0
20260502185628 63 41 2.0 5.0 0.00 0.09 0.02 71 1013.0
20260502185140 64 24 1.0 0.0 0.00 0.00 0.00 70 1013.0
20260502184304 64 355 2.0 7.0 0.00 0.09 0.02 67 1013.0
20260502183803 65 14 2.0 7.0 0.00 0.09 0.02 65 1013.0
20260502182305 66 347 2.0 7.0 0.00 0.09 0.02 62 1012.9
20260502181803 66 15 2.0 6.0 0.00 0.09 0.02 60 1013.0
20260502181250 66 325 3.0 6.0 0.00 0.09 0.02 59 1013.0
20260502180756 67 39 3.0 6.0 0.00 0.09 0.02 58 1013.0
20260502170211 70 342 4.0 9.0 0.00 0.09 0.02 54 1013.6
20260502164155 71 316 3.0 6.0 0.00 0.09 0.02 55 1013.7
20260502163658 71 333 4.0 0.0 0.00 0.00 0.00 55 1013.7
20260502163034 71 344 4.0 9.0 0.00 0.10 0.03 57 1013.9
20260502162517 71 327 4.0 9.0 0.00 0.10 0.02 60 1013.8
20260502162034 71 348 4.0 0.0 0.00 0.00 0.00 60 1013.9
20260502161053 71 5 5.0 10.0 0.00 0.10 0.02 66 1013.9
20260502160559 72 349 5.0 0.0 0.00 0.00 0.00 69 1013.9
20260502152217 73 278 5.0 9.0 0.06 0.12 0.02 66 1014.1
20260502151725 73 355 5.0 0.0 0.00 0.00 0.00 67 1014.1
20260502150839 74 290 6.0 11.0 0.06 0.12 0.02 67 1014.3
20260502150333 74 306 5.0 10.0 0.06 0.12 0.02 67 1014.3
20260502130540 74 344 5.0 0.0 0.00 0.00 0.00 67 1015.2
20260502123235 75 263 6.0 15.0 0.00 0.24 0.21 62 1015.4
20260502122734 75 280 4.0 13.0 0.00 0.24 0.13 62 1015.4
20260502121246 75 209 6.0 13.0 0.00 0.24 0.05 62 1015.5
20260502120739 75 277 6.0 13.0 0.00 0.24 0.02 62 1015.6
20260502120244 74 236 5.0 16.0 0.00 0.24 0.01 62 1015.6
20260502115738 74 309 5.0 16.0 0.00 0.24 0.00 62 1015.6
20260502115241 74 302 6.0 0.0 0.00 0.00 0.00 62 1015.7
20260502114029 74 305 4.0 10.0 0.00 0.24 0.02 63 1015.8
20260502113535 73 293 3.0 11.0 0.00 0.24 0.01 64 1015.9
20260502113031 74 238 4.0 11.0 0.00 0.24 0.01 64 1016.0
20260502112533 73 302 3.0 9.0 0.00 0.24 0.01 64 1016.1
20260502112028 73 323 3.0 9.0 0.00 0.24 0.00 65 1016.1
20260502111533 72 290 3.0 10.0 0.00 0.24 0.00 65 1016.1
20260502111035 71 336 3.0 10.0 0.00 0.24 0.00 66 1016.1
20260502110247 72 282 2.0 7.0 0.00 0.24 0.00 66 1016.2
20260502105746 71 248 2.0 7.0 0.00 0.24 0.00 66 1016.1
20260502104739 72 293 4.0 10.0 0.00 0.26 0.00 64 1016.2
20260502104254 72 248 4.0 0.0 0.00 0.00 0.00 65 1016.2
20260502103550 72 301 3.0 10.0 0.02 0.27 0.02 64 1016.2
20260502103051 71 310 3.0 9.0 0.01 0.27 0.01 67 1016.1
20260502102550 70 280 3.0 10.0 0.01 0.28 0.01 68 1016.2
20260502102051 69 295 1.0 10.0 0.00 0.28 0.01 67 1016.3
20260502101049 68 257 0.0 3.0 0.00 0.28 0.00 69 1016.1
20260502100549 67 270 0.0 3.0 0.00 0.28 0.00 68 1016.1
20260502090139 60 197 0.0 0.0 0.00 0.29 0.00 74 1016.4
20260502071404 64 234 0.0 3.0 0.01 0.41 0.00 58 1016.4
20260502070904 64 253 0.0 2.0 0.01 0.41 0.00 58 1016.4
20260502070402 64 253 0.0 3.0 0.01 0.41 0.00 58 1016.5
20260502065852 64 210 0.0 3.0 0.00 0.40 0.01 56 1016.6
20260502065332 64 215 0.0 3.0 0.00 0.40 0.01 56 1016.5
20260502064837 64 225 0.0 6.0 0.00 0.40 0.01 56 1016.5
20260502063836 64 221 0.0 3.0 0.00 0.40 0.00 58 1016.5
20260502063328 64 221 0.0 3.0 0.00 0.40 0.00 59 1016.4
20260502061536 61 233 0.0 3.0 0.00 0.40 0.00 62 1016.3
20260502061037 60 186 0.0 3.0 0.00 0.40 0.00 63 1016.3
20260502060536 60 211 0.0 1.0 0.00 0.00 0.00 65 1016.3
20260502055933 59 211 0.0 1.0 0.00 0.40 0.00 66 1016.4
20260502055420 58 195 0.0 0.0 0.00 0.40 0.00 66 1016.4
20260502054911 58 192 0.0 0.0 0.00 0.40 0.00 67 1016.4
20260502054407 58 166 0.0 0.0 0.00 0.40 0.00 66 1016.3
20260502053904 57 165 0.0 0.0 0.00 0.40 0.00 67 1016.3
20260502053357 56 165 0.0 0.0 0.00 0.40 0.00 67 1016.2
20260502052850 56 166 0.0 0.0 0.00 0.40 0.00 68 1016.3
20260502051833 55 162 0.0 0.0 0.00 0.40 0.00 69 1016.2
20260502051332 55 162 0.0 0.0 0.00 0.40 0.00 70 1016.2
20260502050323 54 163 0.0 0.0 0.00 0.40 0.00 70 1016.3
20260502045804 54 173 0.0 0.0 0.00 0.40 0.00 70 1016.3
20260502045301 54 165 0.0 0.0 0.00 0.40 0.00 71 1016.3
20260502044800 54 165 0.0 0.0 0.00 0.40 0.00 71 1016.3
20260502043739 53 165 0.0 0.0 0.00 0.40 0.00 71 1016.3
20260502043233 53 165 0.0 0.0 0.00 0.40 0.00 72 1016.3
20260502042732 53 165 0.0 0.0 0.00 0.40 0.00 72 1016.3
20260502042231 53 165 0.0 0.0 0.00 0.40 0.00 72 1016.3
20260502041715 53 165 0.0 0.0 0.00 0.40 0.00 71 1016.4
20260502041206 53 165 0.0 0.0 0.00 0.40 0.00 70 1016.4
20260502040157 54 165 0.0 0.0 0.00 0.40 0.00 70 1016.4
20260502035656 54 165 0.0 0.0 0.00 0.40 0.00 70 1016.5
20260502035156 54 165 0.0 0.0 0.00 0.40 0.00 69 1016.6
20260502034632 54 165 0.0 0.0 0.00 0.40 0.00 69 1016.6
20260502034107 55 165 0.0 0.0 0.00 0.40 0.00 69 1016.6
20260502033606 55 165 0.0 0.0 0.00 0.40 0.00 68 1016.7
20260502033059 55 165 0.0 0.0 0.00 0.40 0.00 67 1016.8
20260502032555 55 165 0.0 0.0 0.00 0.40 0.00 67 1016.7
20260502032041 55 165 0.0 0.0 0.00 0.40 0.00 67 1016.7
20260502031537 55 165 0.0 0.0 0.00 0.40 0.00 67 1016.7
20260502031032 55 165 0.0 0.0 0.00 0.40 0.00 67 1016.8
20260502030532 55 169 0.0 0.0 0.00 0.40 0.00 67 1016.8
20260502030032 55 175 0.0 0.0 0.00 0.40 0.00 66 1016.9
20260502025532 55 188 0.0 1.0 0.00 0.40 0.00 66 1016.8
20260502025032 55 211 0.0 1.0 0.00 0.40 0.00 66 1016.9
20260502024532 56 211 0.0 2.0 0.00 0.40 0.00 65 1016.9
20260502023531 56 211 0.0 0.0 0.00 0.40 0.00 64 1016.9
20260502023015 56 211 0.0 0.0 0.00 0.40 0.00 64 1016.9
20260502022505 56 211 0.0 0.0 0.00 0.40 0.00 64 1016.9
20260502022005 56 211 0.0 0.0 0.00 0.40 0.00 64 1017.0
20260502021505 56 211 0.0 0.0 0.00 0.40 0.00 63 1017.1
20260502020506 56 211 0.0 0.0 0.00 0.40 0.00 63 1017.2
20260502020006 56 211 0.0 0.0 0.00 0.40 0.00 64 1017.1
20260502015009 56 212 0.0 0.0 0.00 0.40 0.00 64 1017.2
20260502014004 57 212 0.0 0.0 0.00 0.40 0.00 63 1017.3
20260502013446 57 212 0.0 0.0 0.00 0.40 0.00 63 1017.3
20260502012939 57 212 0.0 0.0 0.00 0.40 0.00 63 1017.3
20260502012414 57 212 0.0 0.0 0.00 0.40 0.00 63 1017.4
20260502011909 57 212 0.0 0.0 0.00 0.40 0.00 62 1017.5
20260502011359 57 212 0.0 0.0 0.00 0.40 0.00 62 1017.5
20260502010851 58 212 0.0 0.0 0.00 0.40 0.00 61 1017.6
20260502010357 57 212 0.0 0.0 0.00 0.40 0.00 61 1017.6
20260502005837 58 212 0.0 0.0 0.00 0.40 0.00 62 1017.8
20260502005312 58 213 0.0 0.0 0.00 0.40 0.00 62 1017.9
20260502004812 58 213 0.0 0.0 0.00 0.40 0.00 62 1017.9
20260502004311 58 213 0.0 0.0 0.00 0.40 0.00 61 1017.9
20260502003805 58 213 0.0 0.0 0.00 0.40 0.00 61 1018.0
20260502003300 58 213 0.0 0.0 0.00 0.40 0.00 62 1018.0
20260502002744 58 213 0.0 0.0 0.00 0.40 0.00 62 1018.1
20260502002247 58 213 0.0 0.0 0.00 0.40 0.00 62 1018.1
20260502001739 58 213 0.0 0.0 0.00 0.40 0.00 62 1018.2
20260502001245 58 213 0.0 0.0 0.00 0.00 0.00 62 1018.2
20260502000332 58 213 0.0 0.0 0.00 0.40 0.00 61 1018.3
20260501235815 58 213 0.0 0.0 0.00 0.40 0.00 61 1018.3
20260501235306 58 213 0.0 0.0 0.00 0.40 0.00 61 1018.3
20260501234301 58 213 0.0 0.0 0.00 0.40 0.00 61 1018.4
20260501233259 59 213 0.0 0.0 0.00 0.40 0.00 60 1018.5
20260501232757 59 213 0.0 0.0 0.00 0.40 0.00 59 1018.5
20260501232248 59 213 0.0 0.0 0.00 0.40 0.00 58 1018.6